Find Starlink 30548

NORAD ID: 58046 Int'l Des: 2023-156 Owner: SPXS Country: US Constellation: starlink operational
LEOCIRCULAR

Live-Position

3D-Globus wird geladen...

Über Starlink 30548

Beschreibung wird geladen...

Nächste Überflüge

Passes for default location (London). Set your location on the main map for personalized predictions.

Höhenverlauf

Loading altitude history...

Zweizeiliger Elementsatz

1 58046U 23156U 26124.67108645 .00001574 00000-0 65278-4 0 9991
2 58046 53.1615 268.1717 0001307 88.9333 271.1818 15.30189973143555
Epoch: 4. Mai 2026 • Age: 22 hours

Aktueller Status

Höhe 475.5 km
Geschwindigkeit 7.63 km/s
Subsatellitenpunkt 21.97°N, 154.66°W
Startdatum 9. Okt. 2023
Alter 2.5 years
Typ internet

Technische Details

Klassifizierung Payload
Masse 730.00 kg
Trockenmasse 700.00 kg
Gesamtmasse 730.00 kg
Länge 0.30 m
Durchmesser 4.10 m
Spannweite 29.00 m
Form Box + pan
Hersteller SPXS
Bus-Typ Starlink V2M
Phasenstatus In Orbit
Besitzer/Staat SPXS/US

Most Searched